Tabellarische Ansicht des 28.12.2012


Die einzelnen Werte des Tages

Uhrzeit Temperatur Luftdruck Luftfeuchte Wind Hi-Wind Taupunkt THW Index Wind Chill Heat Index Solar- strahlung Regen

00:00

2.1 C

1012.4 hpa

83 %

3.2 km/h aus 115

8.0 km/h aus NNW

-0.5 C

1.6 C

1.7 C

1.9 C

0 W/m

0.00 mm

00:05

2.1 C

1012.4 hpa

82 %

4.8 km/h aus 114

8.0 km/h aus NNW

-0.7 C

0.7 C

0.8 C

1.9 C

0 W/m

0.00 mm

00:10

1.9 C

1012.4 hpa

82 %

6.4 km/h aus 115

16.1 km/h aus NW

-0.8 C

-0.1 C

0.1 C

1.8 C

0 W/m

0.00 mm

00:15

1.9 C

1012.9 hpa

82 %

6.4 km/h aus 117

11.3 km/h aus NW

-0.9 C

-0.2 C

0.0 C

1.7 C

0 W/m

0.00 mm

00:20

1.8 C

1012.9 hpa

82 %

6.4 km/h aus 115

11.3 km/h aus NNW

-0.9 C

-0.2 C

-0.1 C

1.7 C

0 W/m

0.00 mm

00:25

1.8 C

1012.9 hpa

82 %

8.0 km/h aus 118

16.1 km/h aus NW

-1.0 C

-0.8 C

-0.7 C

1.6 C

0 W/m

0.00 mm

00:30

1.7 C

1013.2 hpa

82 %

8.0 km/h aus 117

14.5 km/h aus NNW

-1.0 C

-0.9 C

-0.7 C

1.6 C

0 W/m

0.00 mm

00:35

1.7 C

1013.2 hpa

82 %

4.8 km/h aus 117

11.3 km/h aus NNW

-1.1 C

0.2 C

0.4 C

1.5 C

0 W/m

0.00 mm

00:40

1.7 C

1013.2 hpa

81 %

4.8 km/h aus 117

11.3 km/h aus NNW

-1.2 C

0.2 C

0.4 C

1.5 C

0 W/m

0.00 mm

00:45

1.6 C

1013.5 hpa

81 %

6.4 km/h aus 117

16.1 km/h aus NW

-1.4 C

-0.6 C

-0.4 C

1.4 C

0 W/m

0.00 mm

00:50

1.5 C

1013.5 hpa

81 %

4.8 km/h aus 117

9.7 km/h aus NNW

-1.4 C

0.1 C

0.2 C

1.3 C

0 W/m

0.00 mm

00:55

1.4 C

1013.5 hpa

81 %

4.8 km/h aus 116

9.7 km/h aus NNW

-1.5 C

-0.1 C

0.1 C

1.2 C

0 W/m

0.00 mm

01:00

1.3 C

1014.0 hpa

81 %

6.4 km/h aus 117

11.3 km/h aus NNW

-1.6 C

-0.8 C

-0.7 C

1.2 C

0 W/m

0.00 mm

01:05

1.3 C

1014.0 hpa

81 %

6.4 km/h aus 116

9.7 km/h aus NNW

-1.6 C

-0.8 C

-0.7 C

1.2 C

0 W/m

0.00 mm

01:10

1.3 C

1014.0 hpa

81 %

4.8 km/h aus 117

9.7 km/h aus NNW

-1.6 C

-0.2 C

0.0 C

1.2 C

0 W/m

0.00 mm

01:15

1.3 C

1014.4 hpa

81 %

3.2 km/h aus 117

8.0 km/h aus NNW

-1.6 C

0.6 C

0.8 C

1.1 C

0 W/m

0.00 mm

01:20

1.2 C

1014.4 hpa

81 %

3.2 km/h aus 117

8.0 km/h aus NNW

-1.7 C

0.6 C

0.8 C

1.0 C

0 W/m

0.00 mm

01:25

1.1 C

1014.4 hpa

81 %

3.2 km/h aus 117

8.0 km/h aus NNW

-1.8 C

0.4 C

0.7 C

0.9 C

0 W/m

0.00 mm

01:30

1.1 C

1014.6 hpa

81 %

4.8 km/h aus 118

9.7 km/h aus NNW

-1.8 C

-0.5 C

-0.3 C

0.8 C

0 W/m

0.00 mm

01:35

1.0 C

1014.6 hpa

82 %

3.2 km/h aus 117

9.7 km/h aus NNW

-1.7 C

0.3 C

0.5 C

0.8 C

0 W/m

0.00 mm

01:40

0.9 C

1014.6 hpa

82 %

3.2 km/h aus 116

8.0 km/h aus NNW

-1.8 C

0.3 C

0.4 C

0.8 C

0 W/m

0.00 mm

01:45

0.8 C

1015.3 hpa

82 %

1.6 km/h aus 117

6.4 km/h aus NNW

-1.9 C

0.7 C

0.8 C

0.7 C

0 W/m

0.00 mm

01:50

0.8 C

1015.3 hpa

82 %

3.2 km/h aus 116

8.0 km/h aus NNW

-1.9 C

0.2 C

0.3 C

0.7 C

0 W/m

0.00 mm

01:55

0.8 C

1015.3 hpa

82 %

3.2 km/h aus 117

9.7 km/h aus NW

-1.9 C

0.1 C

0.3 C

0.6 C

0 W/m

0.00 mm

02:00

0.7 C

1015.6 hpa

82 %

3.2 km/h aus 117

8.0 km/h aus NW

-2.1 C

0.0 C

0.2 C

0.5 C

0 W/m

0.00 mm

02:05

0.6 C

1015.6 hpa

82 %

3.2 km/h aus 117

8.0 km/h aus NW

-2.1 C

-0.1 C

0.1 C

0.4 C

0 W/m

0.00 mm

02:10

0.6 C

1015.6 hpa

82 %

3.2 km/h aus 117

8.0 km/h aus NW

-2.2 C

-0.1 C

0.1 C

0.4 C

0 W/m

0.00 mm

02:15

0.5 C

1016.1 hpa

82 %

3.2 km/h aus 117

8.0 km/h aus NW

-2.2 C

-0.2 C

0.0 C

0.3 C

0 W/m

0.00 mm

02:20

0.4 C

1016.1 hpa

82 %

1.6 km/h aus 116

4.8 km/h aus NW

-2.3 C

0.3 C

0.4 C

0.3 C

0 W/m

0.00 mm

02:25

0.3 C

1016.1 hpa

82 %

1.6 km/h aus 116

4.8 km/h aus NW

-2.4 C

0.2 C

0.3 C

0.2 C

0 W/m

0.00 mm

02:30

0.3 C

1016.6 hpa

82 %

1.6 km/h aus 117

4.8 km/h aus NW

-2.4 C

0.2 C

0.3 C

0.2 C

0 W/m

0.00 mm

02:35

0.3 C

1016.6 hpa

82 %

0.0 km/h aus 118

3.2 km/h aus NW

-2.4 C

0.1 C

0.3 C

0.1 C

0 W/m

0.00 mm

02:40

0.2 C

1016.6 hpa

82 %

1.6 km/h aus 117

8.0 km/h aus NW

-2.5 C

0.1 C

0.2 C

0.1 C

0 W/m

0.00 mm

02:45

0.2 C

1017.0 hpa

81 %

3.2 km/h aus 117

9.7 km/h aus NW

-2.7 C

-0.6 C

-0.4 C

0.0 C

0 W/m

0.00 mm

02:50

0.1 C

1017.0 hpa

82 %

1.6 km/h aus 116

4.8 km/h aus NW

-2.6 C

-0.1 C

0.1 C

-0.1 C

0 W/m

0.00 mm

02:55

0.1 C

1017.0 hpa

82 %

0.0 km/h aus 117

1.6 km/h aus NW

-2.7 C

-0.1 C

0.1 C

-0.1 C

0 W/m

0.00 mm

03:00

0.0 C

1017.2 hpa

82 %

0.0 km/h aus 116

3.2 km/h aus NW

-2.7 C

-0.2 C

0.0 C

-0.2 C

0 W/m

0.00 mm

03:05

-0.1 C

1017.2 hpa

82 %

1.6 km/h aus 117

3.2 km/h aus NW

-2.8 C

-0.2 C

-0.1 C

-0.2 C

0 W/m

0.00 mm

03:10

-0.2 C

1017.2 hpa

82 %

1.6 km/h aus 117

8.0 km/h aus NW

-2.9 C

-0.3 C

-0.2 C

-0.3 C

0 W/m

0.00 mm

03:15

-0.2 C

1017.7 hpa

82 %

3.2 km/h aus 116

6.4 km/h aus NW

-2.9 C

-1.0 C

-0.8 C

-0.4 C

0 W/m

0.00 mm

03:20

-0.3 C

1017.7 hpa

82 %

3.2 km/h aus 116

6.4 km/h aus NW

-3.0 C

-1.1 C

-0.9 C

-0.4 C

0 W/m

0.00 mm

03:25

-0.4 C

1017.7 hpa

82 %

1.6 km/h aus 116

3.2 km/h aus NW

-3.1 C

-0.6 C

-0.4 C

-0.6 C

0 W/m

0.00 mm

03:30

-0.4 C

1018.2 hpa

82 %

1.6 km/h aus 117

3.2 km/h aus NW

-3.1 C

-0.6 C

-0.4 C

-0.6 C

0 W/m

0.00 mm

03:35

-0.5 C

1018.2 hpa

82 %

1.6 km/h aus 117

4.8 km/h aus NW

-3.2 C

-0.7 C

-0.5 C

-0.7 C

0 W/m

0.00 mm

03:40

-0.6 C

1018.2 hpa

82 %

1.6 km/h aus 118

4.8 km/h aus NW

-3.3 C

-0.7 C

-0.6 C

-0.7 C

0 W/m

0.00 mm

03:45

-0.7 C

1018.8 hpa

82 %

0.0 km/h aus 117

4.8 km/h aus NW

-3.4 C

-0.8 C

-0.7 C

-0.8 C

0 W/m

0.00 mm

03:50

-0.8 C

1018.8 hpa

82 %

0.0 km/h aus 117

1.6 km/h aus NW

-3.5 C

-0.9 C

-0.8 C

-0.9 C

0 W/m

0.00 mm

03:55

-0.8 C

1018.8 hpa

82 %

1.6 km/h aus 117

3.2 km/h aus NW

-3.5 C

-1.0 C

-0.8 C

-1.0 C

0 W/m

0.00 mm

04:00

-0.9 C

1019.2 hpa

82 %

0.0 km/h aus 116

3.2 km/h aus NW

-3.6 C

-1.1 C

-0.9 C

-1.1 C

0 W/m

0.00 mm

04:05

-1.1 C

1019.2 hpa

82 %

1.6 km/h aus 116

3.2 km/h aus NW

-3.7 C

-1.2 C

-1.1 C

-1.2 C

0 W/m

0.00 mm

04:10

-1.2 C

1019.2 hpa

82 %

1.6 km/h aus 117

4.8 km/h aus NW

-3.8 C

-1.3 C

-1.2 C

-1.3 C

0 W/m

0.00 mm

04:15

-1.2 C

1019.7 hpa

82 %

3.2 km/h aus 116

6.4 km/h aus NW

-3.9 C

-2.1 C

-1.9 C

-1.4 C

0 W/m

0.00 mm

04:20

-1.3 C

1019.7 hpa

82 %

3.2 km/h aus 117

4.8 km/h aus NW

-4.0 C

-2.2 C

-2.0 C

-1.4 C

0 W/m

0.00 mm

04:25

-1.3 C

1019.7 hpa

82 %

1.6 km/h aus 117

4.8 km/h aus NW

-4.0 C

-1.5 C

-1.3 C

-1.5 C

0 W/m

0.00 mm

04:30

-1.3 C

1019.8 hpa

83 %

1.6 km/h aus 116

3.2 km/h aus NW

-3.8 C

-1.4 C

-1.3 C

-1.4 C

0 W/m

0.00 mm

04:35

-1.4 C

1019.8 hpa

83 %

0.0 km/h aus 117

4.8 km/h aus NW

-3.9 C

-1.5 C

-1.4 C

-1.5 C

0 W/m

0.00 mm

04:40

-1.4 C

1019.8 hpa

83 %

1.6 km/h aus 117

4.8 km/h aus NW

-4.0 C

-1.6 C

-1.4 C

-1.6 C

0 W/m

0.00 mm

04:45

-1.4 C

1020.1 hpa

83 %

0.0 km/h aus 118

3.2 km/h aus NW

-4.0 C

-1.6 C

-1.4 C

-1.6 C

0 W/m

0.00 mm

04:50

-1.5 C

1020.1 hpa

83 %

0.0 km/h aus 117

1.6 km/h aus NW

-4.0 C

-1.6 C

-1.5 C

-1.6 C

0 W/m

0.00 mm

04:55

-1.6 C

1020.1 hpa

83 %

0.0 km/h aus 117

1.6 km/h aus NW

-4.1 C

-1.7 C

-1.6 C

-1.7 C

0 W/m

0.00 mm

05:00

-1.7 C

1020.3 hpa

83 %

0.0 km/h aus 117

0.0 km/h aus ---

-4.2 C

-1.8 C

-1.7 C

-1.8 C

0 W/m

0.00 mm

05:05

-1.8 C

1020.3 hpa

83 %

0.0 km/h aus 117

0.0 km/h aus ---

-4.3 C

-1.9 C

-1.8 C

-1.9 C

0 W/m

0.00 mm

05:10

-1.9 C

1020.3 hpa

83 %

0.0 km/h aus 117

1.6 km/h aus NW

-4.4 C

-2.0 C

-1.9 C

-2.0 C

0 W/m

0.00 mm

05:15

-2.0 C

1020.4 hpa

83 %

0.0 km/h aus 116

0.0 km/h aus ---

-4.5 C

-2.1 C

-2.0 C

-2.1 C

0 W/m

0.00 mm

05:20

-2.1 C

1020.4 hpa

83 %

0.0 km/h aus 116

0.0 km/h aus ---

-4.6 C

-2.2 C

-2.1 C

-2.2 C

0 W/m

0.00 mm

05:25

-2.2 C

1020.4 hpa

83 %

0.0 km/h aus 117

0.0 km/h aus ---

-4.7 C

-2.3 C

-2.2 C

-2.3 C

0 W/m

0.00 mm

05:30

-2.3 C

1020.4 hpa

83 %

0.0 km/h aus 117

0.0 km/h aus ---

-4.8 C

-2.4 C

-2.3 C

-2.4 C

0 W/m

0.00 mm

05:35

-2.4 C

1020.4 hpa

83 %

0.0 km/h aus 117

0.0 km/h aus ---

-4.9 C

-2.5 C

-2.4 C

-2.5 C

0 W/m

0.00 mm

05:40

-2.5 C

1020.4 hpa

83 %

0.0 km/h aus 117

0.0 km/h aus ---

-5.0 C

-2.6 C

-2.5 C

-2.6 C

0 W/m

0.00 mm

05:45

-2.6 C

1020.4 hpa

83 %

0.0 km/h aus 116

0.0 km/h aus ---

-5.0 C

-2.7 C

-2.6 C

-2.7 C

0 W/m

0.00 mm

05:50

-2.7 C

1020.4 hpa

83 %

0.0 km/h aus 116

0.0 km/h aus ---

-5.2 C

-2.8 C

-2.7 C

-2.8 C

0 W/m

0.00 mm

05:55

-2.8 C

1020.4 hpa

83 %

0.0 km/h aus 117

0.0 km/h aus ---

-5.3 C

-2.9 C

-2.8 C

-2.9 C

0 W/m

0.00 mm

06:00

-2.8 C

1020.6 hpa

83 %

0.0 km/h aus 117

0.0 km/h aus ---

-5.3 C

-2.9 C

-2.8 C

-2.9 C

0 W/m

0.00 mm

06:05

-2.9 C

1020.6 hpa

83 %

0.0 km/h aus 116

0.0 km/h aus ---

-5.4 C

-3.1 C

-2.9 C

-3.1 C

0 W/m

0.00 mm

06:10

-3.1 C

1020.6 hpa

83 %

0.0 km/h aus 117

0.0 km/h aus ---

-5.5 C

-3.2 C

-3.1 C

-3.2 C

0 W/m

0.00 mm

06:15

-3.2 C

1020.8 hpa

83 %

0.0 km/h aus 117

0.0 km/h aus ---

-5.6 C

-3.3 C

-3.2 C

-3.3 C

0 W/m

0.00 mm

06:20

-3.2 C

1020.8 hpa

83 %

0.0 km/h aus 117

1.6 km/h aus NW

-5.7 C

-3.3 C

-3.2 C

-3.3 C

0 W/m

0.00 mm

06:25

-3.3 C

1020.8 hpa

83 %

1.6 km/h aus 117

3.2 km/h aus NW

-5.8 C

-3.4 C

-3.3 C

-3.4 C

0 W/m

0.00 mm

06:30

-3.4 C

1021.0 hpa

83 %

1.6 km/h aus 117

3.2 km/h aus NW

-5.9 C

-3.5 C

-3.4 C

-3.5 C

0 W/m

0.00 mm

06:35

-3.4 C

1021.0 hpa

83 %

0.0 km/h aus 117

3.2 km/h aus NW

-5.9 C

-3.6 C

-3.4 C

-3.6 C

0 W/m

0.00 mm

06:40

-3.5 C

1021.0 hpa

83 %

1.6 km/h aus 117

3.2 km/h aus NW

-6.0 C

-3.6 C

-3.5 C

-3.6 C

0 W/m

0.00 mm

06:45

-3.6 C

1021.3 hpa

83 %

0.0 km/h aus 117

0.0 km/h aus ---

-6.0 C

-3.7 C

-3.6 C

-3.7 C

0 W/m

0.00 mm

06:50

-3.6 C

1021.3 hpa

83 %

1.6 km/h aus 117

3.2 km/h aus NW

-6.1 C

-3.7 C

-3.6 C

-3.7 C

0 W/m

0.00 mm

06:55

-3.7 C

1021.3 hpa

84 %

0.0 km/h aus 118

3.2 km/h aus NW

-6.0 C

-3.8 C

-3.7 C

-3.8 C

0 W/m

0.00 mm

07:00

-3.7 C

1021.4 hpa

83 %

1.6 km/h aus 117

3.2 km/h aus NW

-6.2 C

-3.8 C

-3.7 C

-3.8 C

0 W/m

0.00 mm

07:05

-3.8 C

1021.4 hpa

83 %

1.6 km/h aus 117

4.8 km/h aus NW

-6.2 C

-3.9 C

-3.8 C

-3.9 C

0 W/m

0.00 mm

07:10

-3.8 C

1021.4 hpa

84 %

1.6 km/h aus 117

4.8 km/h aus NW

-6.1 C

-3.9 C

-3.8 C

-3.9 C

0 W/m

0.00 mm

07:15

-3.9 C

1021.4 hpa

84 %

1.6 km/h aus 117

3.2 km/h aus NW

-6.2 C

-4.0 C

-3.9 C

-4.0 C

0 W/m

0.00 mm

07:20

-3.9 C

1021.4 hpa

84 %

0.0 km/h aus 116

1.6 km/h aus NW

-6.2 C

-4.1 C

-3.9 C

-4.1 C

0 W/m

0.00 mm

07:25

-3.9 C

1021.4 hpa

84 %

0.0 km/h aus 117

0.0 km/h aus ---

-6.2 C

-4.1 C

-3.9 C

-4.1 C

0 W/m

0.00 mm

07:30

-3.9 C

1021.8 hpa

84 %

0.0 km/h aus 117

0.0 km/h aus ---

-6.2 C

-4.1 C

-3.9 C

-4.1 C

0 W/m

0.00 mm

07:35

-3.9 C

1021.8 hpa

84 %

1.6 km/h aus 116

3.2 km/h aus NW

-6.2 C

-4.1 C

-3.9 C

-4.1 C

0 W/m

0.00 mm

07:40

-3.9 C

1021.8 hpa

84 %

0.0 km/h aus 117

3.2 km/h aus NW

-6.2 C

-4.1 C

-3.9 C

-4.1 C

0 W/m

0.00 mm

07:45

-4.0 C

1022.2 hpa

85 %

0.0 km/h aus 117

0.0 km/h aus ---

-6.1 C

-4.1 C

-4.0 C

-4.1 C

0 W/m

0.00 mm

07:50

-4.0 C

1022.2 hpa

84 %

0.0 km/h aus 117

0.0 km/h aus ---

-6.3 C

-4.1 C

-4.0 C

-4.1 C

0 W/m

0.00 mm

07:55

-4.1 C

1022.2 hpa

84 %

0.0 km/h aus 117

1.6 km/h aus NW

-6.4 C

-4.2 C

-4.1 C

-4.2 C

0 W/m

0.00 mm

08:00

-4.1 C

1022.5 hpa

85 %

0.0 km/h aus 118

0.0 km/h aus ---

-6.2 C

-4.2 C

-4.1 C

-4.2 C

0 W/m

0.00 mm

08:05

-4.2 C

1022.5 hpa

85 %

0.0 km/h aus 115

0.0 km/h aus ---

-6.3 C

-4.3 C

-4.2 C

-4.3 C

0 W/m

0.00 mm

08:10

-4.2 C

1022.5 hpa

85 %

0.0 km/h aus 114

0.0 km/h aus ---

-6.3 C

-4.3 C

-4.2 C

-4.3 C

0 W/m

0.00 mm

08:15

-4.2 C

1022.7 hpa

85 %

0.0 km/h aus 117

1.6 km/h aus NW

-6.4 C

-4.3 C

-4.2 C

-4.3 C

0 W/m

0.00 mm

08:20

-4.3 C

1022.7 hpa

85 %

0.0 km/h aus 117

0.0 km/h aus ---

-6.4 C

-4.4 C

-4.3 C

-4.4 C

0 W/m

0.00 mm

08:25

-4.3 C

1022.7 hpa

85 %

0.0 km/h aus 117

1.6 km/h aus NW

-6.5 C

-4.4 C

-4.3 C

-4.4 C

0 W/m

0.00 mm

08:30

-4.4 C

1023.0 hpa

85 %

0.0 km/h aus 117

0.0 km/h aus ---

-6.5 C

-4.5 C

-4.4 C

-4.5 C

0 W/m

0.00 mm

08:35

-4.4 C

1023.0 hpa

85 %

0.0 km/h aus 116

3.2 km/h aus NW

-6.6 C

-4.6 C

-4.4 C

-4.6 C

0 W/m

0.00 mm

08:40

-4.5 C

1023.0 hpa

85 %

1.6 km/h aus 117

3.2 km/h aus NW

-6.6 C

-4.6 C

-4.5 C

-4.6 C

0 W/m

0.00 mm

08:45

-4.5 C

1023.0 hpa

85 %

0.0 km/h aus 117

3.2 km/h aus NW

-6.6 C

-4.6 C

-4.5 C

-4.6 C

0 W/m

0.00 mm

08:50

-4.5 C

1023.0 hpa

85 %

0.0 km/h aus 116

1.6 km/h aus NW

-6.6 C

-4.6 C

-4.5 C

-4.6 C

0 W/m

0.00 mm

08:55

-4.6 C

1023.0 hpa

85 %

0.0 km/h aus 117

0.0 km/h aus ---

-6.7 C

-4.7 C

-4.6 C

-4.7 C

0 W/m

0.00 mm

09:00

-4.6 C

1023.2 hpa

85 %

0.0 km/h aus 116

3.2 km/h aus NW

-6.7 C

-4.7 C

-4.6 C

-4.7 C

0 W/m

0.00 mm

09:05

-4.6 C

1023.2 hpa

85 %

0.0 km/h aus 117

3.2 km/h aus NW

-6.7 C

-4.7 C

-4.6 C

-4.7 C

0 W/m

0.00 mm

09:10

-4.6 C

1023.2 hpa

85 %

1.6 km/h aus 116

3.2 km/h aus NW

-6.7 C

-4.7 C

-4.6 C

-4.7 C

0 W/m

0.00 mm

09:15

-4.6 C

1023.5 hpa

86 %

1.6 km/h aus 117

4.8 km/h aus NW

-6.5 C

-4.7 C

-4.6 C

-4.7 C

0 W/m

0.00 mm

09:20

-4.6 C

1023.5 hpa

86 %

1.6 km/h aus 116

4.8 km/h aus NW

-6.5 C

-4.7 C

-4.6 C

-4.7 C

0 W/m

0.00 mm

09:25

-4.5 C

1023.5 hpa

86 %

3.2 km/h aus 117

6.4 km/h aus ENE

-6.5 C

-5.6 C

-5.5 C

-4.6 C

0 W/m

0.00 mm

09:30

-4.4 C

1023.5 hpa

86 %

3.2 km/h aus 117

6.4 km/h aus E

-6.4 C

-5.5 C

-5.4 C

-4.5 C

0 W/m

0.00 mm

09:35

-4.3 C

1023.5 hpa

87 %

1.6 km/h aus 117

4.8 km/h aus E

-6.2 C

-4.4 C

-4.3 C

-4.4 C

0 W/m

0.00 mm

09:40

-4.2 C

1023.5 hpa

87 %

1.6 km/h aus 117

4.8 km/h aus E

-6.1 C

-4.3 C

-4.2 C

-4.3 C

0 W/m

0.00 mm

09:45

-4.1 C

1023.6 hpa

87 %

1.6 km/h aus 116

4.8 km/h aus E

-6.0 C

-4.2 C

-4.1 C

-4.2 C

0 W/m

0.00 mm

09:50

-4.0 C

1023.6 hpa

87 %

3.2 km/h aus 116

6.4 km/h aus E

-5.8 C

-5.1 C

-4.9 C

-4.1 C

0 W/m

0.00 mm

09:55

-3.8 C

1023.6 hpa

87 %

3.2 km/h aus 116

4.8 km/h aus E

-5.7 C

-4.9 C

-4.8 C

-3.9 C

0 W/m

0.00 mm

10:00

-3.7 C

1023.7 hpa

87 %

3.2 km/h aus 116

8.0 km/h aus E

-5.6 C

-4.8 C

-4.7 C

-3.8 C

0 W/m

0.00 mm

10:05

-3.6 C

1023.7 hpa

87 %

3.2 km/h aus 115

6.4 km/h aus E

-5.5 C

-4.7 C

-4.6 C

-3.7 C

0 W/m

0.00 mm

10:10

-3.4 C

1023.7 hpa

88 %

1.6 km/h aus 118

6.4 km/h aus ESE

-5.1 C

-3.5 C

-3.4 C

-3.5 C

0 W/m

0.00 mm

10:15

-3.3 C

1023.9 hpa

88 %

3.2 km/h aus 117

6.4 km/h aus ESE

-5.0 C

-4.2 C

-4.2 C

-3.3 C

0 W/m

0.00 mm

10:20

-3.1 C

1023.9 hpa

88 %

3.2 km/h aus 117

4.8 km/h aus E

-4.8 C

-4.1 C

-4.0 C

-3.2 C

0 W/m

0.00 mm

10:25

-2.9 C

1023.9 hpa

88 %

3.2 km/h aus 117

6.4 km/h aus ESE

-4.7 C

-3.9 C

-3.8 C

-3.0 C

0 W/m

0.00 mm

10:30

-2.8 C

1024.0 hpa

88 %

3.2 km/h aus 116

6.4 km/h aus ESE

-4.5 C

-3.7 C

-3.6 C

-2.8 C

0 W/m

0.00 mm

10:35

-2.6 C

1024.0 hpa

89 %

3.2 km/h aus 117

9.7 km/h aus SE

-4.2 C

-3.5 C

-3.4 C

-2.7 C

0 W/m

0.00 mm

10:40

-2.4 C

1024.0 hpa

89 %

4.8 km/h aus 117

8.0 km/h aus SE

-4.0 C

-4.3 C

-4.2 C

-2.5 C

0 W/m

0.00 mm

10:45

-2.1 C

1024.1 hpa

89 %

6.4 km/h aus 117

9.7 km/h aus SE

-3.7 C

-4.7 C

-4.6 C

-2.2 C

0 W/m

0.00 mm

10:50

-1.9 C

1024.1 hpa

89 %

4.8 km/h aus 117

9.7 km/h aus SE

-3.5 C

-3.7 C

-3.6 C

-2.0 C

0 W/m

0.00 mm

10:55

-1.8 C

1024.1 hpa

89 %

4.8 km/h aus 116

8.0 km/h aus SE

-3.4 C

-3.6 C

-3.5 C

-1.9 C

0 W/m

0.00 mm

11:00

-1.6 C

1023.7 hpa

89 %

3.2 km/h aus 116

8.0 km/h aus SE

-3.2 C

-2.4 C

-2.3 C

-1.7 C

0 W/m

0.00 mm

11:05

-1.4 C

1023.7 hpa

89 %

4.8 km/h aus 117

9.7 km/h aus SE

-3.0 C

-3.2 C

-3.1 C

-1.6 C

0 W/m

0.00 mm

11:10

-1.3 C

1023.7 hpa

89 %

4.8 km/h aus 116

8.0 km/h aus SE

-2.9 C

-3.1 C

-2.9 C

-1.4 C

0 W/m

0.00 mm

11:15

-1.1 C

1023.7 hpa

90 %

4.8 km/h aus 118

9.7 km/h aus SE

-2.5 C

-2.8 C

-2.7 C

-1.2 C

0 W/m

0.00 mm

11:20

-0.3 C

1023.7 hpa

89 %

4.8 km/h aus 117

9.7 km/h aus SE

-1.9 C

-2.0 C

-1.9 C

-0.4 C

0 W/m

0.00 mm

11:25

0.2 C

1023.7 hpa

87 %

4.8 km/h aus 117

9.7 km/h aus SE

-1.7 C

-1.4 C

-1.3 C

0.1 C

0 W/m

0.00 mm

11:30

0.4 C

1023.6 hpa

84 %

9.7 km/h aus 117

17.7 km/h aus SSE

-2.0 C

-2.8 C

-2.7 C

0.3 C

0 W/m

0.00 mm

11:35

0.4 C

1023.6 hpa

83 %

12.9 km/h aus 117

20.9 km/h aus SE

-2.2 C

-3.6 C

-3.5 C

0.3 C

0 W/m

0.00 mm

11:40

0.4 C

1023.6 hpa

82 %

14.5 km/h aus 116

19.3 km/h aus SSE

-2.3 C

-4.0 C

-3.8 C

0.2 C

0 W/m

0.00 mm

11:45

0.5 C

1023.5 hpa

82 %

9.7 km/h aus 114

16.1 km/h aus SSE

-2.2 C

-2.8 C

-2.6 C

0.3 C

0 W/m

0.00 mm

11:50

0.6 C

1023.5 hpa

81 %

6.4 km/h aus 117

12.9 km/h aus SE

-2.3 C

-1.7 C

-1.6 C

0.4 C

0 W/m

0.00 mm

11:55

0.6 C

1023.5 hpa

81 %

8.0 km/h aus 115

17.7 km/h aus SE

-2.3 C

-2.2 C

-2.1 C

0.4 C

0 W/m

0.00 mm

12:00

0.5 C

1023.0 hpa

81 %

14.5 km/h aus 117

20.9 km/h aus ESE

-2.4 C

-3.8 C

-3.7 C

0.3 C

0 W/m

0.00 mm

12:05

0.4 C

1023.0 hpa

81 %

11.3 km/h aus 117

19.3 km/h aus ESE

-2.4 C

-3.2 C

-3.1 C

0.3 C

0 W/m

0.00 mm

12:10

0.4 C

1023.0 hpa

81 %

11.3 km/h aus 117

20.9 km/h aus SE

-2.4 C

-3.2 C

-3.1 C

0.3 C

0 W/m

0.00 mm

12:15

0.4 C

1022.9 hpa

81 %

14.5 km/h aus 117

24.1 km/h aus SSE

-2.4 C

-3.9 C

-3.8 C

0.3 C

0 W/m

0.00 mm

12:20

0.5 C

1022.9 hpa

81 %

11.3 km/h aus 117

17.7 km/h aus ESE

-2.4 C

-3.2 C

-3.0 C

0.3 C

0 W/m

0.00 mm

12:25

0.6 C

1022.9 hpa

81 %

9.7 km/h aus 117

19.3 km/h aus ESE

-2.3 C

-2.7 C

-2.6 C

0.4 C

0 W/m

0.00 mm

12:30

0.7 C

1022.7 hpa

81 %

11.3 km/h aus 117

20.9 km/h aus SE

-2.2 C

-3.0 C

-2.8 C

0.5 C

0 W/m

0.00 mm

12:35

0.7 C

1022.7 hpa

81 %

11.3 km/h aus 115

17.7 km/h aus ESE

-2.2 C

-2.9 C

-2.7 C

0.6 C

0 W/m

0.00 mm

12:40

0.9 C

1022.7 hpa

81 %

11.3 km/h aus 115

17.7 km/h aus SSE

-2.0 C

-2.7 C

-2.6 C

0.7 C

0 W/m

0.00 mm

12:45

1.0 C

1022.7 hpa

81 %

9.7 km/h aus 116

17.7 km/h aus SE

-1.9 C

-2.2 C

-2.0 C

0.8 C

0 W/m

0.00 mm

12:50

1.2 C

1022.7 hpa

81 %

6.4 km/h aus 117

16.1 km/h aus SE

-1.7 C

-1.1 C

-0.8 C

0.9 C

0 W/m

0.00 mm

12:55

1.3 C

1022.7 hpa

81 %

4.8 km/h aus 117

9.7 km/h aus SE

-1.6 C

-0.2 C

0.0 C

1.2 C

0 W/m

0.00 mm

13:00

1.6 C

1022.5 hpa

81 %

6.4 km/h aus 117

20.9 km/h aus ESE

-1.4 C

-0.6 C

-0.4 C

1.4 C

0 W/m

0.00 mm

13:05

1.7 C

1022.5 hpa

80 %

6.4 km/h aus 116

11.3 km/h aus ESE

-1.4 C

-0.3 C

-0.2 C

1.6 C

0 W/m

0.00 mm

13:10

1.8 C

1022.5 hpa

80 %

6.4 km/h aus 117

14.5 km/h aus SE

-1.3 C

-0.3 C

-0.1 C

1.6 C

0 W/m

0.00 mm

13:15

1.8 C

1022.4 hpa

80 %

6.4 km/h aus 116

17.7 km/h aus SE

-1.3 C

-0.2 C

-0.1 C

1.7 C

0 W/m

0.00 mm

13:20

1.9 C

1022.4 hpa

80 %

6.4 km/h aus 117

16.1 km/h aus SE

-1.1 C

-0.1 C

0.1 C

1.8 C

0 W/m

0.00 mm

13:25

1.9 C

1022.4 hpa

80 %

9.7 km/h aus 117

14.5 km/h aus SSE

-1.1 C

-1.1 C

-0.9 C

1.8 C

0 W/m

0.00 mm

13:30

1.9 C

1022.3 hpa

81 %

9.7 km/h aus 117

17.7 km/h aus SE

-1.0 C

-1.1 C

-0.9 C

1.8 C

0 W/m

0.00 mm

13:35

1.9 C

1022.3 hpa

81 %

14.5 km/h aus 117

19.3 km/h aus SSE

-1.0 C

-2.2 C

-2.0 C

1.7 C

0 W/m

0.00 mm

13:40

1.8 C

1022.3 hpa

81 %

14.5 km/h aus 117

19.3 km/h aus SSE

-1.1 C

-2.3 C

-2.1 C

1.6 C

0 W/m

0.00 mm

13:45

1.8 C

1022.2 hpa

81 %

16.1 km/h aus 116

22.5 km/h aus SSE

-1.1 C

-2.6 C

-2.4 C

1.6 C

0 W/m

0.00 mm

13:50

1.8 C

1022.2 hpa

82 %

19.3 km/h aus 116

25.7 km/h aus SSE

-1.0 C

-3.1 C

-2.9 C

1.6 C

0 W/m

0.00 mm

13:55

1.8 C

1022.2 hpa

81 %

17.7 km/h aus 116

24.1 km/h aus SSE

-1.1 C

-2.7 C

-2.6 C

1.7 C

0 W/m

0.00 mm

14:00

1.8 C

1022.4 hpa

82 %

11.3 km/h aus 117

19.3 km/h aus SE

-1.0 C

-1.6 C

-1.4 C

1.6 C

0 W/m

0.00 mm

14:05

1.8 C

1022.4 hpa

82 %

8.0 km/h aus 115

16.1 km/h aus SE

-1.0 C

-0.8 C

-0.7 C

1.6 C

0 W/m

0.00 mm

14:10

1.8 C

1022.4 hpa

82 %

6.4 km/h aus 116

9.7 km/h aus SE

-1.0 C

-0.3 C

-0.1 C

1.6 C

0 W/m

0.00 mm

14:15

1.8 C

1022.1 hpa

82 %

6.4 km/h aus 117

11.3 km/h aus SE

-1.0 C

-0.3 C

-0.1 C

1.6 C

0 W/m

0.00 mm

14:20

1.8 C

1022.1 hpa

82 %

6.4 km/h aus 117

9.7 km/h aus ESE

-0.9 C

-0.2 C

-0.1 C

1.7 C

0 W/m

0.00 mm

14:25

1.9 C

1022.1 hpa

82 %

4.8 km/h aus 116

11.3 km/h aus ENE

-0.9 C

0.5 C

0.7 C

1.7 C

0 W/m

0.00 mm

14:30

2.1 C

1021.9 hpa

82 %

4.8 km/h aus 117

8.0 km/h aus E

-0.7 C

0.7 C

0.8 C

1.9 C

0 W/m

0.00 mm

14:35

2.1 C

1021.9 hpa

82 %

4.8 km/h aus 117

9.7 km/h aus E

-0.6 C

0.7 C

0.9 C

1.9 C

0 W/m

0.00 mm

14:40

2.2 C

1021.9 hpa

82 %

6.4 km/h aus 116

11.3 km/h aus SE

-0.5 C

0.2 C

0.4 C

2.1 C

0 W/m

0.00 mm

14:45

2.3 C

1021.8 hpa

83 %

4.8 km/h aus 117

9.7 km/h aus SE

-0.3 C

1.0 C

1.1 C

2.2 C

0 W/m

0.00 mm

14:50

2.3 C

1021.8 hpa

83 %

8.0 km/h aus 115

17.7 km/h aus SE

-0.3 C

-0.2 C

-0.1 C

2.2 C

0 W/m

0.00 mm

14:55

2.3 C

1021.8 hpa

83 %

11.3 km/h aus 117

25.7 km/h aus SE

-0.3 C

-1.0 C

-0.9 C

2.2 C

0 W/m

0.00 mm

15:00

2.3 C

1021.5 hpa

83 %

9.7 km/h aus 117

16.1 km/h aus SE

-0.3 C

-0.6 C

-0.5 C

2.2 C

0 W/m

0.00 mm

15:05

2.3 C

1021.5 hpa

83 %

9.7 km/h aus 117

20.9 km/h aus ESE

-0.3 C

-0.6 C

-0.5 C

2.2 C

0 W/m

0.00 mm

15:10

2.2 C

1021.5 hpa

83 %

11.3 km/h aus 116

19.3 km/h aus ESE

-0.4 C

-1.1 C

-0.9 C

2.1 C

0 W/m

0.00 mm

15:15

2.2 C

1021.8 hpa

83 %

12.9 km/h aus 117

22.5 km/h aus SSE

-0.4 C

-1.4 C

-1.3 C

2.1 C

0 W/m

0.00 mm

15:20

2.2 C

1021.8 hpa

83 %

11.3 km/h aus 117

20.9 km/h aus SE

-0.4 C

-1.1 C

-1.0 C

2.1 C

0 W/m

0.00 mm

15:25

2.2 C

1021.8 hpa

83 %

11.3 km/h aus 115

20.9 km/h aus SE

-0.4 C

-1.1 C

-1.0 C

2.1 C

0 W/m

0.00 mm

15:30

2.1 C

1021.8 hpa

83 %

12.9 km/h aus 118

20.9 km/h aus SE

-0.5 C

-1.5 C

-1.4 C

2.0 C

0 W/m

0.00 mm

15:35

2.2 C

1021.8 hpa

84 %

14.5 km/h aus 115

27.4 km/h aus SE

-0.3 C

-1.7 C

-1.6 C

2.1 C

0 W/m

0.00 mm

15:40

2.2 C

1021.8 hpa

84 %

14.5 km/h aus 116

24.1 km/h aus SE

-0.3 C

-1.7 C

-1.6 C

2.1 C

0 W/m

0.00 mm

15:45

2.2 C

1021.7 hpa

84 %

16.1 km/h aus 115

25.7 km/h aus ESE

-0.3 C

-2.0 C

-1.9 C

2.1 C

0 W/m

0.00 mm

15:50

2.2 C

1021.7 hpa

84 %

14.5 km/h aus 116

27.4 km/h aus ESE

-0.3 C

-1.7 C

-1.6 C

2.1 C

0 W/m

0.00 mm

15:55

2.2 C

1021.7 hpa

84 %

14.5 km/h aus 117

22.5 km/h aus ESE

-0.2 C

-1.7 C

-1.6 C

2.1 C

0 W/m

0.00 mm

16:00

2.2 C

1021.4 hpa

84 %

14.5 km/h aus 116

22.5 km/h aus ESE

-0.2 C

-1.7 C

-1.6 C

2.1 C

0 W/m

0.00 mm

16:05

2.3 C

1021.4 hpa

84 %

12.9 km/h aus 117

22.5 km/h aus ESE

-0.1 C

-1.3 C

-1.2 C

2.2 C

0 W/m

0.00 mm

16:10

2.3 C

1021.4 hpa

85 %

11.3 km/h aus 116

20.9 km/h aus ESE

0.0 C

-1.0 C

-0.9 C

2.2 C

0 W/m

0.00 mm

16:15

2.3 C

1021.4 hpa

85 %

12.9 km/h aus 117

22.5 km/h aus SE

0.1 C

-1.2 C

-1.1 C

2.2 C

0 W/m

0.00 mm

16:20

2.4 C

1021.4 hpa

85 %

16.1 km/h aus 117

24.1 km/h aus SSE

0.2 C

-1.7 C

-1.6 C

2.3 C

0 W/m

0.00 mm

16:25

2.5 C

1021.4 hpa

85 %

14.5 km/h aus 117

25.7 km/h aus ESE

0.2 C

-1.3 C

-1.2 C

2.4 C

0 W/m

0.00 mm

16:30

2.6 C

1021.2 hpa

86 %

14.5 km/h aus 116

24.1 km/h aus SE

0.5 C

-1.2 C

-1.1 C

2.5 C

0 W/m

0.00 mm

16:35

2.7 C

1021.2 hpa

86 %

14.5 km/h aus 118

24.1 km/h aus SE

0.6 C

-1.1 C

-1.0 C

2.6 C

0 W/m

0.00 mm

16:40

2.7 C

1021.2 hpa

86 %

16.1 km/h aus 115

27.4 km/h aus SE

0.6 C

-1.3 C

-1.2 C

2.6 C

0 W/m

0.00 mm

16:45

2.8 C

1021.1 hpa

86 %

17.7 km/h aus 117

27.4 km/h aus ESE

0.7 C

-1.4 C

-1.3 C

2.7 C

0 W/m

0.00 mm

16:50

2.9 C

1021.1 hpa

86 %

14.5 km/h aus 115

22.5 km/h aus E

0.8 C

-0.8 C

-0.7 C

2.8 C

0 W/m

0.00 mm

16:55

2.9 C

1021.1 hpa

86 %

11.3 km/h aus 116

19.3 km/h aus ESE

0.8 C

-0.2 C

-0.1 C

2.8 C

0 W/m

0.00 mm

17:00

2.9 C

1020.9 hpa

86 %

9.7 km/h aus 116

17.7 km/h aus E

0.8 C

0.2 C

0.3 C

2.8 C

0 W/m

0.00 mm

17:05

2.9 C

1020.9 hpa

86 %

9.7 km/h aus 117

17.7 km/h aus ESE

0.8 C

0.2 C

0.3 C

2.8 C

0 W/m

0.00 mm

17:10

3.0 C

1020.9 hpa

86 %

11.3 km/h aus 117

19.3 km/h aus ESE

0.9 C

-0.1 C

0.0 C

2.9 C

0 W/m

0.00 mm

17:15

3.1 C

1020.7 hpa

86 %

9.7 km/h aus 116

20.9 km/h aus E

0.9 C

0.3 C

0.4 C

2.9 C

0 W/m

0.00 mm

17:20

3.1 C

1020.7 hpa

86 %

9.7 km/h aus 116

17.7 km/h aus ESE

0.9 C

0.3 C

0.4 C

2.9 C

0 W/m

0.00 mm

17:25

3.2 C

1020.7 hpa

86 %

9.7 km/h aus 117

17.7 km/h aus SE

1.0 C

0.4 C

0.6 C

3.1 C

0 W/m

0.00 mm

17:30

3.2 C

1020.5 hpa

86 %

9.7 km/h aus 117

19.3 km/h aus SE

1.0 C

0.4 C

0.6 C

3.1 C

0 W/m

0.00 mm

17:35

3.2 C

1020.5 hpa

86 %

8.0 km/h aus 115

17.7 km/h aus SE

1.1 C

0.9 C

1.1 C

3.1 C

0 W/m

0.00 mm

17:40

3.3 C

1020.5 hpa

87 %

9.7 km/h aus 118

20.9 km/h aus SE

1.3 C

0.6 C

0.7 C

3.2 C

0 W/m

0.00 mm

17:45

3.3 C

1020.4 hpa

87 %

11.3 km/h aus 116

19.3 km/h aus SE

1.4 C

0.3 C

0.4 C

3.2 C

0 W/m

0.00 mm

17:50

3.4 C

1020.4 hpa

87 %

12.9 km/h aus 117

24.1 km/h aus SSE

1.5 C

0.1 C

0.2 C

3.3 C

0 W/m

0.00 mm

17:55

3.6 C

1020.4 hpa

87 %

12.9 km/h aus 116

22.5 km/h aus SSE

1.6 C

0.2 C

0.3 C

3.4 C

0 W/m

0.00 mm

18:00

3.6 C

1020.2 hpa

87 %

11.3 km/h aus 117

20.9 km/h aus SE

1.6 C

0.6 C

0.7 C

3.4 C

0 W/m

0.00 mm

18:05

3.6 C

1020.2 hpa

87 %

9.7 km/h aus 115

16.1 km/h aus SE

1.6 C

1.0 C

1.1 C

3.5 C

0 W/m

0.00 mm

18:10

3.7 C

1020.2 hpa

87 %

8.0 km/h aus 117

16.1 km/h aus SE

1.7 C

1.4 C

1.6 C

3.6 C

0 W/m

0.00 mm

18:15

3.7 C

1019.9 hpa

87 %

9.7 km/h aus 116

24.1 km/h aus SE

1.7 C

1.1 C

1.2 C

3.6 C

0 W/m

0.00 mm

18:20

3.7 C

1019.9 hpa

87 %

11.3 km/h aus 116

20.9 km/h aus ESE

1.8 C

0.8 C

0.9 C

3.6 C

0 W/m

0.00 mm

18:25

3.8 C

1019.9 hpa

87 %

11.3 km/h aus 117

22.5 km/h aus SSE

1.8 C

0.8 C

0.9 C

3.7 C

0 W/m

0.00 mm

18:30

3.8 C

1019.8 hpa

87 %

9.7 km/h aus 117

19.3 km/h aus SSE

1.9 C

1.2 C

1.3 C

3.7 C

0 W/m

0.00 mm

18:35

3.9 C

1019.8 hpa

87 %

9.7 km/h aus 117

19.3 km/h aus ESE

1.9 C

1.3 C

1.4 C

3.8 C

0 W/m

0.00 mm

18:40

3.9 C

1019.8 hpa

87 %

9.7 km/h aus 116

22.5 km/h aus SSE

2.0 C

1.4 C

1.5 C

3.8 C

0 W/m

0.00 mm

18:45

4.0 C

1019.4 hpa

87 %

11.3 km/h aus 117

20.9 km/h aus SSE

2.0 C

1.1 C

1.2 C

3.9 C

0 W/m

0.00 mm

18:50

4.1 C

1019.4 hpa

87 %

16.1 km/h aus 117

24.1 km/h aus SSE

2.1 C

0.3 C

0.4 C

3.9 C

0 W/m

0.00 mm

18:55

4.2 C

1019.4 hpa

87 %

14.5 km/h aus 115

20.9 km/h aus SSE

2.2 C

0.7 C

0.8 C

4.1 C

0 W/m

0.00 mm

19:00

4.2 C

1019.3 hpa

87 %

16.1 km/h aus 117

22.5 km/h aus SSE

2.2 C

0.5 C

0.6 C

4.1 C

0 W/m

0.00 mm

19:05

4.3 C

1019.3 hpa

87 %

14.5 km/h aus 117

20.9 km/h aus SSE

2.3 C

0.8 C

0.9 C

4.2 C

0 W/m

0.00 mm

19:10

4.3 C

1019.3 hpa

87 %

17.7 km/h aus 115

24.1 km/h aus S

2.4 C

0.4 C

0.6 C

4.2 C

0 W/m

0.00 mm

19:15

4.4 C

1019.4 hpa

87 %

17.7 km/h aus 116

25.7 km/h aus SSE

2.4 C

0.5 C

0.6 C

4.3 C

0 W/m

0.00 mm

19:20

4.5 C

1019.4 hpa

87 %

16.1 km/h aus 116

22.5 km/h aus SSE

2.5 C

0.8 C

0.9 C

4.4 C

0 W/m

0.00 mm

19:25

4.6 C

1019.4 hpa

87 %

19.3 km/h aus 116

27.4 km/h aus SSE

2.6 C

0.4 C

0.6 C

4.4 C

0 W/m

0.00 mm

19:30

4.7 C

1019.3 hpa

87 %

17.7 km/h aus 117

24.1 km/h aus SSE

2.7 C

0.8 C

0.9 C

4.6 C

0 W/m

0.00 mm

19:35

4.7 C

1019.3 hpa

87 %

17.7 km/h aus 116

24.1 km/h aus SSE

2.7 C

0.9 C

1.0 C

4.6 C

0 W/m

0.00 mm

19:40

4.8 C

1019.3 hpa

87 %

16.1 km/h aus 117

24.1 km/h aus SSE

2.8 C

1.2 C

1.3 C

4.7 C

0 W/m

0.00 mm

19:45

4.8 C

1018.9 hpa

87 %

12.9 km/h aus 118

19.3 km/h aus SSE

2.9 C

1.8 C

1.9 C

4.7 C

0 W/m

0.00 mm

19:50

4.8 C

1018.9 hpa

87 %

17.7 km/h aus 117

29.0 km/h aus SSE

2.9 C

1.0 C

1.1 C

4.7 C

0 W/m

0.00 mm

19:55

4.9 C

1018.9 hpa

87 %

19.3 km/h aus 117

25.7 km/h aus SE

3.0 C

0.9 C

1.1 C

4.8 C

0 W/m

0.00 mm

20:00

5.0 C

1018.7 hpa

87 %

17.7 km/h aus 117

29.0 km/h aus SSE

3.0 C

1.2 C

1.3 C

4.9 C

0 W/m

0.00 mm

20:05

5.1 C

1018.7 hpa

87 %

20.9 km/h aus 117

27.4 km/h aus SSE

3.1 C

0.8 C

0.9 C

4.9 C

0 W/m

0.00 mm

20:10

5.1 C

1018.7 hpa

88 %

24.1 km/h aus 117

32.2 km/h aus SSE

3.3 C

0.6 C

0.7 C

5.1 C

0 W/m

0.00 mm

20:15

5.2 C

1018.6 hpa

88 %

16.1 km/h aus 117

25.7 km/h aus SSE

3.4 C

1.8 C

1.8 C

5.2 C

0 W/m

0.00 mm

20:20

5.3 C

1018.6 hpa

88 %

16.1 km/h aus 116

29.0 km/h aus SSE

3.5 C

1.8 C

1.9 C

5.2 C

0 W/m

0.00 mm

20:25

5.3 C

1018.6 hpa

87 %

16.1 km/h aus 117

25.7 km/h aus S

3.3 C

1.8 C

1.9 C

5.2 C

0 W/m

0.00 mm

20:30

5.3 C

1018.6 hpa

87 %

24.1 km/h aus 117

32.2 km/h aus SSE

3.3 C

0.9 C

0.9 C

5.3 C

0 W/m

0.00 mm

20:35

5.4 C

1018.6 hpa

88 %

24.1 km/h aus 117

32.2 km/h aus SSE

3.6 C

1.0 C

1.1 C

5.4 C

0 W/m

0.00 mm

20:40

5.5 C

1018.6 hpa

88 %

22.5 km/h aus 117

29.0 km/h aus SSE

3.7 C

1.2 C

1.3 C

5.4 C

0 W/m

0.00 mm

20:45

5.6 C

1018.6 hpa

87 %

16.1 km/h aus 117

25.7 km/h aus SSE

3.6 C

2.2 C

2.2 C

5.5 C

0 W/m

0.00 mm

20:50

5.6 C

1018.6 hpa

87 %

9.7 km/h aus 118

20.9 km/h aus SE

3.6 C

3.3 C

3.4 C

5.5 C

0 W/m

0.00 mm

20:55

5.6 C

1018.6 hpa

87 %

11.3 km/h aus 117

20.9 km/h aus SE

3.6 C

3.0 C

3.1 C

5.5 C

0 W/m

0.00 mm

21:00

5.6 C

1018.3 hpa

87 %

11.3 km/h aus 117

22.5 km/h aus SSE

3.6 C

3.0 C

3.1 C

5.5 C

0 W/m

0.00 mm

21:05

5.6 C

1018.3 hpa

87 %

14.5 km/h aus 117

27.4 km/h aus SE

3.6 C

2.5 C

2.6 C

5.6 C

0 W/m

0.00 mm

21:10

5.7 C

1018.3 hpa

87 %

19.3 km/h aus 117

27.4 km/h aus SE

3.7 C

1.8 C

1.8 C

5.6 C

0 W/m

0.00 mm

21:15

5.8 C

1018.3 hpa

88 %

17.7 km/h aus 117

30.6 km/h aus SE

3.9 C

2.2 C

2.2 C

5.7 C

0 W/m

0.00 mm

21:20

5.9 C

1018.3 hpa

88 %

17.7 km/h aus 117

24.1 km/h aus SSE

4.1 C

2.3 C

2.3 C

5.8 C

0 W/m

0.00 mm

21:25

5.9 C

1018.3 hpa

88 %

17.7 km/h aus 117

27.4 km/h aus SE

4.1 C

2.3 C

2.4 C

5.9 C

0 W/m

0.00 mm

21:30

6.0 C

1017.9 hpa

88 %

17.7 km/h aus 116

24.1 km/h aus SSE

4.2 C

2.5 C

2.5 C

6.0 C

0 W/m

0.00 mm

21:35

6.1 C

1017.9 hpa

88 %

16.1 km/h aus 117

25.7 km/h aus SSE

4.2 C

2.8 C

2.8 C

6.1 C

0 W/m

0.00 mm

21:40

6.1 C

1017.9 hpa

88 %

17.7 km/h aus 117

25.7 km/h aus SE

4.3 C

2.6 C

2.6 C

6.1 C

0 W/m

0.00 mm

21:45

6.2 C

1017.9 hpa

88 %

24.1 km/h aus 116

30.6 km/h aus SSE

4.3 C

1.8 C

1.8 C

6.2 C

0 W/m

0.00 mm

21:50

6.3 C

1017.9 hpa

88 %

27.4 km/h aus 115

35.4 km/h aus SSE

4.4 C

1.7 C

1.7 C

6.3 C

0 W/m

0.00 mm

21:55

6.3 C

1017.9 hpa

88 %

20.9 km/h aus 117

30.6 km/h aus SSE

4.5 C

2.4 C

2.4 C

6.3 C

0 W/m

0.00 mm

22:00

6.4 C

1017.9 hpa

88 %

22.5 km/h aus 117

32.2 km/h aus SSE

4.5 C

2.3 C

2.3 C

6.4 C

0 W/m

0.00 mm

22:05

6.4 C

1017.9 hpa

88 %

20.9 km/h aus 117

32.2 km/h aus S

4.6 C

2.6 C

2.6 C

6.4 C

0 W/m

0.00 mm

22:10

6.5 C

1017.9 hpa

88 %

24.1 km/h aus 117

35.4 km/h aus S

4.7 C

2.2 C

2.2 C

6.5 C

0 W/m

0.00 mm

22:15

6.6 C

1017.8 hpa

88 %

27.4 km/h aus 117

43.5 km/h aus S

4.7 C

2.0 C

2.0 C

6.6 C

0 W/m

0.00 mm

22:20

6.6 C

1017.8 hpa

88 %

22.5 km/h aus 117

33.8 km/h aus S

4.7 C

2.5 C

2.5 C

6.6 C

0 W/m

0.00 mm

22:25

6.6 C

1017.8 hpa

88 %

25.7 km/h aus 117

37.0 km/h aus S

4.8 C

2.2 C

2.2 C

6.6 C

0 W/m

0.00 mm

22:30

6.6 C

1017.7 hpa

88 %

25.7 km/h aus 116

40.2 km/h aus SSE

4.8 C

2.2 C

2.2 C

6.6 C

0 W/m

0.00 mm

22:35

6.6 C

1017.7 hpa

88 %

27.4 km/h aus 116

38.6 km/h aus S

4.8 C

2.1 C

2.1 C

6.6 C

0 W/m

0.00 mm

22:40

6.7 C

1017.7 hpa

88 %

27.4 km/h aus 116

35.4 km/h aus SSE

4.8 C

2.1 C

2.1 C

6.7 C

0 W/m

0.00 mm

22:45

6.7 C

1017.7 hpa

88 %

25.7 km/h aus 117

35.4 km/h aus S

4.8 C

2.3 C

2.3 C

6.7 C

0 W/m

0.00 mm

22:50

6.7 C

1017.7 hpa

88 %

24.1 km/h aus 117

33.8 km/h aus SSE

4.8 C

2.4 C

2.4 C

6.7 C

0 W/m

0.00 mm

22:55

6.7 C

1017.7 hpa

89 %

22.5 km/h aus 117

33.8 km/h aus S

5.0 C

2.7 C

2.7 C

6.8 C

0 W/m

0.00 mm

23:00

6.7 C

1017.7 hpa

89 %

22.5 km/h aus 118

30.6 km/h aus SSE

5.0 C

2.7 C

2.6 C

6.7 C

0 W/m

0.00 mm

23:05

6.7 C

1017.7 hpa

89 %

22.5 km/h aus 116

37.0 km/h aus S

5.0 C

2.7 C

2.6 C

6.7 C

0 W/m

0.00 mm

23:10

6.7 C

1017.7 hpa

89 %

24.1 km/h aus 117

35.4 km/h aus SSE

5.0 C

2.5 C

2.4 C

6.7 C

0 W/m

0.00 mm

23:15

6.7 C

1017.7 hpa

89 %

22.5 km/h aus 117

32.2 km/h aus S

5.0 C

2.7 C

2.7 C

6.8 C

0 W/m

0.00 mm

23:20

6.7 C

1017.7 hpa

89 %

24.1 km/h aus 117

40.2 km/h aus SSE

5.0 C

2.6 C

2.5 C

6.8 C

0 W/m

0.00 mm

23:25

6.7 C

1017.7 hpa

89 %

24.1 km/h aus 116

33.8 km/h aus SSE

5.0 C

2.6 C

2.5 C

6.8 C

0 W/m

0.00 mm

23:30

6.8 C

1017.7 hpa

89 %

20.9 km/h aus 117

32.2 km/h aus SSE

5.1 C

2.9 C

2.9 C

6.8 C

0 W/m

0.00 mm

23:35

6.8 C

1017.7 hpa

89 %

19.3 km/h aus 117

25.7 km/h aus SSE

5.1 C

3.2 C

3.1 C

6.8 C

0 W/m

0.00 mm

23:40

6.8 C

1017.7 hpa

90 %

20.9 km/h aus 116

33.8 km/h aus S

5.3 C

2.9 C

2.9 C

6.8 C

0 W/m

0.00 mm

23:45

6.8 C

1017.8 hpa

90 %

20.9 km/h aus 117

29.0 km/h aus SSE

5.3 C

3.1 C

3.0 C

6.9 C

0 W/m

0.00 mm

23:50

6.9 C

1017.8 hpa

90 %

17.7 km/h aus 116

25.7 km/h aus S

5.4 C

3.6 C

3.5 C

6.9 C

0 W/m

0.00 mm

23:55

6.9 C

1017.8 hpa

90 %

20.9 km/h aus 117

33.8 km/h aus SSE

5.4 C

3.2 C

3.1 C

7.0 C

0 W/m

0.00 mm